Zurück zum Katalog

SL-3 R/B

AktivSSO
NORAD 19046·ROCKET BODY·🇷🇺 Russia

Gestartet Apr 20, 1988 von Baikonur Cosmodrome

Loading…

Nächste Überflüge (nächste 24 Stunden)

TLE

AktuellSource: Space-Track

Epoche: Sep 14, 2026, 21:41 UTC

1 19046U 88032B   26257.90353783  .00004024  00000-0  18099-3 0  9991
2 19046  97.5359 240.9392 0023456 295.5950  64.2862 15.21463427 80869

Verfolge SL-3 R/B in Echtzeit mit AllMySat

Download on the App Store